Time,TemperatureF,DewpointF,PressureIn,WindDirection,WindDirectionDegrees,WindSpeedMPH,WindSpeedGustMPH,Humidity,HourlyPrecipIn,Conditions,Clouds,dailyrainin,SoftwareType,DateUTC
2013-07-04 00:01:00,68.0,63.0,29.59,North,0,5.0,-999.0,82,-99.99,,,-99.99,,2013-07-04 05:01:00,
2013-07-04 00:12:00,68.0,63.0,29.59,North,0,3.0,-999.0,82,-99.99,,,-99.99,,2013-07-04 05:12:00,
2013-07-04 00:22:00,68.0,63.0,29.59,North,0,0.0,-999.0,82,-99.99,,,-99.99,,2013-07-04 05:22:00,
2013-07-04 00:32:00,68.0,63.0,29.59,North,0,3.0,-999.0,82,-99.99,,,-99.99,,2013-07-04 05:32:00,
2013-07-04 00:43:00,68.0,63.0,29.59,North,0,0.0,-999.0,82,-99.99,,,-99.99,,2013-07-04 05:43:00,
2013-07-04 00:52:00,66.0,63.0,29.59,North,0,0.0,-999.0,88,-99.99,,,-99.99,,2013-07-04 05:52:00,
2013-07-04 01:01:00,66.0,63.0,29.59,North,0,0.0,-999.0,88,-99.99,,,-99.99,,2013-07-04 06:01:00,
2013-07-04 01:11:00,66.0,63.0,29.59,North,0,5.0,-999.0,88,-99.99,,,-99.99,,2013-07-04 06:11:00,
2013-07-04 01:22:00,66.0,63.0,29.59,North,0,3.0,-999.0,88,-99.99,,,-99.99,,2013-07-04 06:22:00,
2013-07-04 01:34:00,66.0,63.0,29.59,North,0,0.0,-999.0,88,-99.99,,,-99.99,,2013-07-04 06:34:00,
2013-07-04 01:43:00,66.0,63.0,29.59,North,0,5.0,-999.0,88,-99.99,,,-99.99,,2013-07-04 06:43:00,
2013-07-04 01:52:00,66.0,63.0,29.58,North,0,6.0,-999.0,88,-99.99,,,-99.99,,2013-07-04 06:52:00,
2013-07-04 02:02:00,66.0,63.0,29.58,North,0,6.0,-999.0,88,-99.99,,,-99.99,,2013-07-04 07:02:00,
2013-07-04 02:12:00,66.0,63.0,29.58,North,0,7.0,-999.0,88,-99.99,,,-99.99,,2013-07-04 07:12:00,
2013-07-04 02:22:00,66.0,63.0,29.58,North,0,5.0,-999.0,88,-99.99,,,-99.99,,2013-07-04 07:22:00,
2013-07-04 02:34:00,66.0,63.0,29.58,North,0,5.0,-999.0,88,-99.99,,,-99.99,,2013-07-04 07:34:00,
2013-07-04 02:43:00,66.0,63.0,29.58,NNE,24,5.0,-999.0,88,-99.99,,,-99.99,,2013-07-04 07:43:00,
2013-07-04 02:52:00,64.0,63.0,29.58,North,0,3.0,-999.0,93,-99.99,,,-99.99,,2013-07-04 07:52:00,
2013-07-04 03:02:00,64.0,63.0,29.58,North,0,0.0,-999.0,93,-99.99,,,-99.99,,2013-07-04 08:02:00,
2013-07-04 03:11:00,64.0,63.0,29.58,North,0,0.0,-999.0,93,-99.99,,,-99.99,,2013-07-04 08:11:00,
2013-07-04 03:22:00,63.0,61.0,29.58,North,0,3.0,-999.0,93,-99.99,,,-99.99,,2013-07-04 08:22:00,
2013-07-04 03:33:00,63.0,63.0,29.58,NNW,334,3.0,-999.0,100,-99.99,,,-99.99,,2013-07-04 08:33:00,
2013-07-04 03:42:00,63.0,63.0,29.58,North,0,0.0,-999.0,100,-99.99,,,-99.99,,2013-07-04 08:42:00,
2013-07-04 03:52:00,63.0,63.0,29.58,North,0,0.0,-999.0,100,-99.99,,,-99.99,,2013-07-04 08:52:00,
2013-07-04 04:02:00,63.0,63.0,29.58,North,0,0.0,-999.0,100,-99.99,,,-99.99,,2013-07-04 09:02:00,
2013-07-04 04:11:00,63.0,61.0,29.58,NNW,335,5.0,-999.0,93,-99.99,,,-99.99,,2013-07-04 09:11:00,
2013-07-04 04:22:00,63.0,63.0,29.57,North,0,5.0,-999.0,100,-99.99,,,-99.99,,2013-07-04 09:22:00,
2013-07-04 04:32:00,63.0,61.0,29.57,North,0,6.0,-999.0,93,-99.99,,,-99.99,,2013-07-04 09:32:00,
2013-07-04 04:42:00,63.0,61.0,29.57,North,0,3.0,-999.0,93,-99.99,,,-99.99,,2013-07-04 09:42:00,
2013-07-04 04:52:00,63.0,61.0,29.57,NNE,24,5.0,-999.0,93,-99.99,,,-99.99,,2013-07-04 09:52:00,
2013-07-04 05:01:00,63.0,61.0,29.57,North,0,0.0,-999.0,93,-99.99,,,-99.99,,2013-07-04 10:01:00,
2013-07-04 05:11:00,63.0,61.0,29.58,North,0,6.0,-999.0,93,-99.99,,,-99.99,,2013-07-04 10:11:00,
2013-07-04 05:22:00,63.0,63.0,29.58,North,0,3.0,-999.0,100,-99.99,,,-99.99,,2013-07-04 10:22:00,
2013-07-04 05:33:00,63.0,63.0,29.58,North,0,7.0,-999.0,100,-99.99,,,-99.99,,2013-07-04 10:33:00,
2013-07-04 05:42:00,63.0,61.0,29.58,NNE,25,7.0,-999.0,93,-99.99,,,-99.99,,2013-07-04 10:42:00,
2013-07-04 05:53:00,63.0,61.0,29.58,North,0,6.0,-999.0,93,-99.99,,,-99.99,,2013-07-04 10:53:00,
2013-07-04 06:02:00,61.0,61.0,29.57,NNE,24,6.0,-999.0,100,-99.99,,,-99.99,,2013-07-04 11:02:00,
2013-07-04 06:11:00,61.0,61.0,29.57,North,0,7.0,-999.0,100,-99.99,,,-99.99,,2013-07-04 11:11:00,
2013-07-04 06:22:00,63.0,61.0,29.57,North,0,6.0,-999.0,93,-99.99,,,-99.99,,2013-07-04 11:22:00,
2013-07-04 06:33:00,63.0,61.0,29.57,North,0,7.0,-999.0,93,-99.99,,,-99.99,,2013-07-04 11:33:00,
2013-07-04 06:43:00,63.0,61.0,29.58,North,0,7.0,-999.0,93,-99.99,,,-99.99,,2013-07-04 11:43:00,
2013-07-04 06:53:00,63.0,61.0,29.58,North,0,5.0,-999.0,93,-99.99,,,-99.99,,2013-07-04 11:53:00,
2013-07-04 07:02:00,63.0,61.0,29.58,North,0,9.0,-999.0,93,-99.99,,,-99.99,,2013-07-04 12:02:00,
2013-07-04 07:11:00,63.0,61.0,29.57,North,0,8.0,-999.0,93,-99.99,,,-99.99,,2013-07-04 12:11:00,
2013-07-04 07:22:00,63.0,61.0,29.57,North,0,7.0,-999.0,93,-99.99,,,-99.99,,2013-07-04 12:22:00,
2013-07-04 07:33:00,63.0,61.0,29.57,North,0,8.0,-999.0,93,-99.99,,,-99.99,,2013-07-04 12:33:00,
2013-07-04 07:43:00,64.0,63.0,29.57,North,0,8.0,-999.0,93,-99.99,,,-99.99,,2013-07-04 12:43:00,
2013-07-04 07:52:00,64.0,61.0,29.57,North,0,6.0,-999.0,88,-99.99,,,-99.99,,2013-07-04 12:52:00,
2013-07-04 08:02:00,64.0,63.0,29.58,North,0,8.0,-999.0,93,-99.99,,,-99.99,,2013-07-04 13:02:00,
2013-07-04 08:12:00,66.0,63.0,29.57,NNW,334,7.0,-999.0,88,-99.99,,,-99.99,,2013-07-04 13:12:00,
2013-07-04 08:33:00,66.0,63.0,29.57,NNE,25,7.0,-999.0,88,-99.99,,,-99.99,,2013-07-04 13:33:00,
2013-07-04 08:43:00,68.0,63.0,29.57,NNE,25,7.0,-999.0,82,-99.99,,,-99.99,,2013-07-04 13:43:00,
2013-07-04 08:53:00,68.0,63.0,29.57,NE,45,6.0,-999.0,82,-99.99,,,-99.99,,2013-07-04 13:53:00,
2013-07-04 09:02:00,70.0,63.0,29.57,NNE,25,8.0,-999.0,77,-99.99,,,-99.99,,2013-07-04 14:02:00,
2013-07-04 09:11:00,70.0,63.0,29.57,North,0,7.0,-999.0,77,-99.99,,,-99.99,,2013-07-04 14:11:00,
2013-07-04 09:22:00,72.0,63.0,29.57,NE,45,8.0,-999.0,73,-99.99,,,-99.99,,2013-07-04 14:22:00,
2013-07-04 09:33:00,72.0,63.0,29.57,North,0,7.0,-999.0,73,-99.99,,,-99.99,,2013-07-04 14:33:00,
2013-07-04 09:43:00,72.0,61.0,29.56,North,0,12.0,-999.0,68,-99.99,,,-99.99,,2013-07-04 14:43:00,
2013-07-04 09:53:00,73.0,63.0,29.56,NNE,24,9.0,-999.0,68,-99.99,,,-99.99,,2013-07-04 14:53:00,
2013-07-04 10:02:00,73.0,63.0,29.56,NNE,24,10.0,-999.0,68,-99.99,,,-99.99,,2013-07-04 15:02:00,
2013-07-04 10:11:00,75.0,63.0,29.55,North,0,12.0,-999.0,64,-99.99,,,-99.99,,2013-07-04 15:11:00,
2013-07-04 10:23:00,75.0,61.0,29.55,NW,315,12.0,-999.0,60,-99.99,,,-99.99,,2013-07-04 15:23:00,
2013-07-04 10:33:00,75.0,63.0,29.55,North,0,13.0,-999.0,64,-99.99,,,-99.99,,2013-07-04 15:33:00,
2013-07-04 10:43:00,77.0,63.0,29.55,North,0,7.0,-999.0,61,-99.99,,,-99.99,,2013-07-04 15:43:00,
2013-07-04 10:52:00,77.0,63.0,29.55,North,0,8.0,-999.0,61,-99.99,,,-99.99,,2013-07-04 15:52:00,
2013-07-04 11:02:00,77.0,61.0,29.54,NNE,25,13.0,-999.0,57,-99.99,,,-99.99,,2013-07-04 16:02:00,
2013-07-04 11:11:00,79.0,61.0,29.54,North,0,13.0,-999.0,54,-99.99,,,-99.99,,2013-07-04 16:11:00,
2013-07-04 11:22:00,79.0,61.0,29.54,NE,45,10.0,-999.0,54,-99.99,,,-99.99,,2013-07-04 16:22:00,
2013-07-04 11:33:00,79.0,61.0,29.54,NNE,24,14.0,-999.0,54,-99.99,,,-99.99,,2013-07-04 16:33:00,
2013-07-04 11:42:00,81.0,61.0,29.53,North,0,18.0,-999.0,50,-99.99,,,-99.99,,2013-07-04 16:42:00,
2013-07-04 11:52:00,81.0,63.0,29.53,North,0,20.0,-999.0,54,-99.99,,,-99.99,,2013-07-04 16:52:00,
2013-07-04 12:01:00,81.0,61.0,29.53,NNE,24,15.0,-999.0,50,-99.99,,,-99.99,,2013-07-04 17:01:00,
2013-07-04 12:11:00,81.0,63.0,29.53,NNE,25,8.0,-999.0,54,-99.99,,,-99.99,,2013-07-04 17:11:00,
2013-07-04 12:22:00,81.0,63.0,29.52,NNE,24,9.0,-999.0,54,-99.99,,,-99.99,,2013-07-04 17:22:00,
2013-07-04 12:33:00,81.0,61.0,29.53,North,0,15.0,-999.0,50,-99.99,,,-99.99,,2013-07-04 17:33:00,
2013-07-04 12:43:00,81.0,61.0,29.52,NNE,24,14.0,-999.0,50,-99.99,,,-99.99,,2013-07-04 17:43:00,
2013-07-04 12:53:00,82.0,61.0,29.52,NNE,25,13.0,-999.0,48,-99.99,,,-99.99,,2013-07-04 17:53:00,
2013-07-04 13:01:00,82.0,61.0,29.52,North,0,13.0,-999.0,48,-99.99,,,-99.99,,2013-07-04 18:01:00,
2013-07-04 13:11:00,82.0,61.0,29.52,North,0,17.0,-999.0,48,-99.99,,,-99.99,,2013-07-04 18:11:00,
2013-07-04 13:22:00,84.0,61.0,29.52,NNE,25,16.0,-999.0,45,-99.99,,,-99.99,,2013-07-04 18:22:00,
2013-07-04 13:33:00,84.0,61.0,29.51,North,0,13.0,-999.0,45,-99.99,,,-99.99,,2013-07-04 18:33:00,
2013-07-04 13:43:00,84.0,59.0,29.51,North,0,12.0,-999.0,42,-99.99,,,-99.99,,2013-07-04 18:43:00,
2013-07-04 13:52:00,84.0,61.0,29.51,North,0,10.0,-999.0,45,-99.99,,,-99.99,,2013-07-04 18:52:00,
2013-07-04 14:01:00,84.0,59.0,29.51,North,0,22.0,-999.0,42,-99.99,,,-99.99,,2013-07-04 19:01:00,
2013-07-04 14:11:00,84.0,59.0,29.50,North,0,16.0,-999.0,42,-99.99,,,-99.99,,2013-07-04 19:11:00,
2013-07-04 14:22:00,84.0,57.0,29.50,NNE,24,20.0,-999.0,39,-99.99,,,-99.99,,2013-07-04 19:22:00,
2013-07-04 14:33:00,84.0,59.0,29.50,North,0,14.0,-999.0,42,-99.99,,,-99.99,,2013-07-04 19:33:00,
2013-07-04 14:43:00,84.0,57.0,29.49,NE,45,17.0,-999.0,39,-99.99,,,-99.99,,2013-07-04 19:43:00,
2013-07-04 14:53:00,86.0,61.0,29.49,North,0,14.0,-999.0,42,-99.99,,,-99.99,,2013-07-04 19:53:00,
2013-07-04 15:01:00,86.0,59.0,29.50,ENE,69,10.0,-999.0,40,-99.99,,,-99.99,,2013-07-04 20:01:00,
2013-07-04 15:11:00,88.0,61.0,29.49,NNE,24,18.0,-999.0,40,-99.99,,,-99.99,,2013-07-04 20:11:00,
2013-07-04 15:33:00,88.0,61.0,29.49,North,0,20.0,-999.0,40,-99.99,,,-99.99,,2013-07-04 20:33:00,
2013-07-04 15:42:00,86.0,61.0,29.49,North,0,12.0,-999.0,42,-99.99,,,-99.99,,2013-07-04 20:42:00,
2013-07-04 15:53:00,86.0,61.0,29.49,NE,45,17.0,-999.0,42,-99.99,,,-99.99,,2013-07-04 20:53:00,
2013-07-04 16:01:00,88.0,61.0,29.49,NNE,25,13.0,-999.0,40,-99.99,,,-99.99,,2013-07-04 21:01:00,
2013-07-04 16:11:00,88.0,61.0,29.49,NNE,24,14.0,-999.0,40,-99.99,,,-99.99,,2013-07-04 21:11:00,
2013-07-04 16:22:00,88.0,61.0,29.49,NNE,25,13.0,-999.0,40,-99.99,,,-99.99,,2013-07-04 21:22:00,
2013-07-04 16:32:00,88.0,61.0,29.49,North,0,20.0,-999.0,40,-99.99,,,-99.99,,2013-07-04 21:32:00,
2013-07-04 16:43:00,88.0,61.0,29.49,NNE,24,14.0,-999.0,40,-99.99,,,-99.99,,2013-07-04 21:43:00,
2013-07-04 16:52:00,88.0,61.0,29.49,North,0,7.0,-999.0,40,-99.99,,,-99.99,,2013-07-04 21:52:00,
2013-07-04 17:01:00,88.0,61.0,29.48,North,0,13.0,-999.0,40,-99.99,,,-99.99,,2013-07-04 22:01:00,
2013-07-04 17:11:00,88.0,61.0,29.48,North,0,20.0,-999.0,40,-99.99,,,-99.99,,2013-07-04 22:11:00,
2013-07-04 17:22:00,88.0,61.0,29.47,North,0,17.0,-999.0,40,-99.99,,,-99.99,,2013-07-04 22:22:00,
2013-07-04 17:33:00,88.0,61.0,29.47,North,0,17.0,-999.0,40,-99.99,,,-99.99,,2013-07-04 22:33:00,
2013-07-04 17:43:00,86.0,61.0,29.47,NNE,24,14.0,-999.0,42,-99.99,,,-99.99,,2013-07-04 22:43:00,
2013-07-04 17:52:00,88.0,61.0,29.47,North,0,14.0,-999.0,40,-99.99,,,-99.99,,2013-07-04 22:52:00,
2013-07-04 18:01:00,86.0,61.0,29.47,NNE,24,14.0,-999.0,42,-99.99,,,-99.99,,2013-07-04 23:01:00,
2013-07-04 18:11:00,86.0,61.0,29.47,NNE,25,12.0,-999.0,42,-99.99,,,-99.99,,2013-07-04 23:11:00,
2013-07-04 18:23:00,86.0,61.0,29.47,NNE,25,13.0,-999.0,42,-99.99,,,-99.99,,2013-07-04 23:23:00,
2013-07-04 18:33:00,84.0,59.0,29.47,NNE,25,21.0,-999.0,42,-99.99,,,-99.99,,2013-07-04 23:33:00,
2013-07-04 18:42:00,84.0,59.0,29.47,NE,45,9.0,-999.0,42,-99.99,,,-99.99,,2013-07-04 23:42:00,
2013-07-04 18:52:00,84.0,61.0,29.47,NNE,24,15.0,-999.0,45,-99.99,,,-99.99,,2013-07-04 23:52:00,
2013-07-04 19:01:00,84.0,61.0,29.47,North,0,8.0,-999.0,45,-99.99,,,-99.99,,2013-07-05 00:01:00,
2013-07-04 19:11:00,84.0,63.0,29.46,North,0,10.0,-999.0,48,-99.99,,,-99.99,,2013-07-05 00:11:00,
2013-07-04 19:22:00,84.0,61.0,29.46,North,0,16.0,-999.0,45,-99.99,,,-99.99,,2013-07-05 00:22:00,
2013-07-04 19:32:00,84.0,63.0,29.46,NNE,25,13.0,-999.0,48,-99.99,,,-99.99,,2013-07-05 00:32:00,
2013-07-04 19:43:00,84.0,63.0,29.46,NNE,24,15.0,-999.0,48,-99.99,,,-99.99,,2013-07-05 00:43:00,
2013-07-04 19:52:00,82.0,61.0,29.46,North,0,14.0,-999.0,48,-99.99,,,-99.99,,2013-07-05 00:52:00,
2013-07-04 20:01:00,82.0,63.0,29.46,North,0,10.0,-999.0,51,-99.99,,,-99.99,,2013-07-05 01:01:00,
2013-07-04 20:11:00,82.0,63.0,29.46,North,0,12.0,-999.0,51,-99.99,,,-99.99,,2013-07-05 01:11:00,
2013-07-04 20:22:00,82.0,61.0,29.46,North,0,14.0,-999.0,48,-99.99,,,-99.99,,2013-07-05 01:22:00,
2013-07-04 20:32:00,82.0,63.0,29.46,North,0,9.0,-999.0,51,-99.99,,,-99.99,,2013-07-05 01:32:00,
2013-07-04 20:42:00,81.0,63.0,29.46,NW,315,13.0,-999.0,54,-99.99,,,-99.99,,2013-07-05 01:42:00,
2013-07-04 20:52:00,81.0,63.0,29.46,NNE,25,12.0,-999.0,54,-99.99,,,-99.99,,2013-07-05 01:52:00,
2013-07-04 21:02:00,81.0,63.0,29.46,NNW,334,12.0,-999.0,54,-99.99,,,-99.99,,2013-07-05 02:02:00,
2013-07-04 21:11:00,79.0,61.0,29.46,North,0,13.0,-999.0,54,-99.99,,,-99.99,,2013-07-05 02:11:00,
2013-07-04 21:21:00,79.0,63.0,29.46,North,0,12.0,-999.0,57,-99.99,,,-99.99,,2013-07-05 02:21:00,
2013-07-04 21:32:00,79.0,61.0,29.47,North,0,9.0,-999.0,54,-99.99,,,-99.99,,2013-07-05 02:32:00,
2013-07-04 21:42:00,79.0,63.0,29.47,NNE,24,9.0,-999.0,57,-99.99,,,-99.99,,2013-07-05 02:42:00,
2013-07-04 21:52:00,79.0,63.0,29.47,North,0,10.0,-999.0,57,-99.99,,,-99.99,,2013-07-05 02:52:00,
2013-07-04 22:02:00,79.0,63.0,29.47,NNW,335,10.0,-999.0,57,-99.99,,,-99.99,,2013-07-05 03:02:00,
2013-07-04 22:11:00,77.0,63.0,29.48,North,0,10.0,-999.0,61,-99.99,,,-99.99,,2013-07-05 03:11:00,
2013-07-04 22:22:00,77.0,63.0,29.49,North,0,10.0,-999.0,61,-99.99,,,-99.99,,2013-07-05 03:22:00,
2013-07-04 22:32:00,77.0,64.0,29.49,NNE,25,7.0,-999.0,65,-99.99,,,-99.99,,2013-07-05 03:32:00,
2013-07-04 22:42:00,75.0,66.0,29.49,NE,45,8.0,-999.0,73,-99.99,,,-99.99,,2013-07-05 03:42:00,
2013-07-04 22:51:00,73.0,66.0,29.50,North,0,8.0,-999.0,78,-99.99,,,-99.99,,2013-07-05 03:51:00,
2013-07-04 23:01:00,73.0,66.0,29.50,NNE,25,8.0,-999.0,78,-99.99,,,-99.99,,2013-07-05 04:01:00,
2013-07-04 23:11:00,73.0,66.0,29.51,North,0,7.0,-999.0,78,-99.99,,,-99.99,,2013-07-05 04:11:00,
2013-07-04 23:22:00,73.0,64.0,29.50,NNE,25,12.0,-999.0,73,-99.99,,,-99.99,,2013-07-05 04:22:00,
2013-07-04 23:33:00,73.0,64.0,29.50,NNE,24,10.0,-999.0,73,-99.99,,,-99.99,,2013-07-05 04:33:00,
2013-07-04 23:43:00,73.0,64.0,29.50,North,0,8.0,-999.0,73,-99.99,,,-99.99,,2013-07-05 04:43:00,
2013-07-04 23:53:00,73.0,63.0,29.50,NNE,24,9.0,-999.0,68,-99.99,,,-99.99,,2013-07-05 04:53:00,